Regional Weather Roundup
Issued by NWS

Home | Current Version | Previous Version | Text Only | Print | Product List | Glossary Off
Versions: 1 2 3 4 5 6 7 8 9 10 11 12 13 14 15 16 17 18 19 20 21 22 23 24 25 26 27 28 29 30 31 32 33 34 35 36 37 38 39 40 41 42 43 44 45 46 47 48 49 50

000
ASUS43 KLSX 230759
RWRMO

WEATHER SUMMARY FOR MISSOURI
NATIONAL WEATHER SERVICE SPRINGFIELD MO
300 AM CDT THU OCT 23 2014

NOTE: "FAIR" INDICATES FEW OR NO CLOUDS BELOW 12,000 FEET WITH NO
       SIGNIFICANT WEATHER AND/OR OBSTRUCTIONS TO VISIBILITY.
       CURRENT SKY AND/OR WEATHER CONDITIONS ARE NOT AVAILABLE FOR
       CHILLICOTHE AND FARMINGTON.

MOZ001>031-035>038-043-044-053-054-230900-
...NORTHERN AND WESTERN MISSOURI...

CITY           SKY/WX    TMP DP  RH WIND       PRES   REMARKS
KANSAS CTY INT CLOUDY    60  54  80 SW3       30.11R
KANSAS C DTWN  CLOUDY    63  51  65 SW8       30.12R
LEE`S SUMMIT   CLOUDY    58  49  72 S9        30.12R
ST JOSEPH      RAIN      58  56  93 S5        30.11S FOG
CHILLICOTHE      N/A     55  44  66 S7        30.13S
KIRKSVILLE     MOCLDY    47  43  86 S8        30.15S

$$
MOZ066>068-077>081-088>096-101>105-230900-
...SOUTHWEST MISSOURI...

CITY           SKY/WX    TMP DP  RH WIND       PRES   REMARKS
SPRINGFIELD    MOCLDY    53  44  71 S12       30.16R
JOPLIN         CLOUDY    59  51  75 SE5       30.13F

$$
MOZ032>034-039>042-045>050-055>058-069>072-230900-
...CENTRAL MISSOURI...

CITY           SKY/WX    TMP DP  RH WIND       PRES   REMARKS
COLUMBIA       CLEAR     46  41  82 SE8       30.17S
JEFFERSON CITY PTCLDY    46  41  82 E5        30.18S
ROLLA          CLEAR     43  38  82 SE7       30.17S
SEDALIA        MOCLDY    52  47  83 S10       30.16S
OSAGE BEACH    CLEAR     46  41  81 SE5       30.18S

$$
MOZ051-052-059>065-230900-
...EAST CENTRAL MISSOURI...

CITY           SKY/WX    TMP DP  RH WIND       PRES   REMARKS
ST LOUIS INTL  PTCLDY    46  39  76 CALM      30.22S
SPIRIT OF STL  CLEAR     38  37  97 CALM      30.21S FOG
ST CHARLES     CLEAR     41  39  93 E6        30.21F

$$
MOZ072>076-082>087-097>100-106>115-230900-
...SOUTH CENTRAL AND SOUTHEAST MISSOURI...

CITY           SKY/WX    TMP DP  RH WIND       PRES   REMARKS
CAPE GIRARDEAU CLEAR     39  37  92 CALM      30.22S
FARMINGTON     CLEAR     36  36 100 CALM      30.23S
POPLAR BLUFF   CLEAR     41  37  86 CALM      30.20F
WEST PLAINS    CLEAR     39  35  86 CALM      30.20S

$$



USA.gov is the U.S. government's official web portal to all federal, state and local government web resources and services.